EW7736 Weather Reports


Display with metric or nautical units.
time (UTC)temp
F
wind
direction
speed
MPH
gust
MPH
rain 1hr
in
rain 24hr
in
rain mn
in
humidity
%
barometer
mb
20260831000458 77 169 0.0 0.0 0.00 0.00 0.00 75 1018.9
20260830235439 77 169 0.0 0.0 0.00 0.00 0.00 74 1018.6
20260830234446 77 165 0.0 0.0 0.00 0.00 0.00 75 1018.7
20260830233508 78 126 0.0 0.0 0.00 0.00 0.00 75 1018.7
20260830232530 78 126 0.0 0.0 0.00 0.00 0.00 75 1018.8
20260830231516 79 126 0.0 0.0 0.00 0.00 0.00 76 1018.6
20260830230528 79 126 0.0 0.0 0.00 0.00 0.00 73 1018.4
20260830225513 80 126 0.0 0.0 0.00 0.00 0.00 72 1018.3
20260830224506 80 126 0.0 0.0 0.00 0.00 0.00 72 1018.4
20260830223513 80 126 0.0 1.0 0.00 0.00 0.00 70 1018.5
20260830221348 81 120 0.0 0.0 0.00 0.00 0.00 68 1018.5
20260830220318 81 120 0.0 0.0 0.00 0.00 0.00 67 1018.6
20260830215246 82 120 0.0 0.0 0.00 0.00 0.00 67 1018.6
20260830214228 82 120 0.0 0.0 0.00 0.00 0.00 65 1018.6
20260830212103 82 122 0.0 1.0 0.00 0.00 0.00 65 1018.5
20260830211031 82 115 0.0 3.0 0.00 0.00 0.00 63 1018.6
20260830210005 83 124 0.0 3.0 0.00 0.00 0.00 63 1018.6
20260830204938 83 121 0.0 2.0 0.00 0.00 0.00 62 1018.7
20260830203912 83 123 0.0 2.0 0.00 0.00 0.00 62 1018.7
20260830202919 82 111 0.0 5.0 0.00 0.00 0.00 62 1018.9
20260830201920 82 115 1.0 5.0 0.00 0.00 0.00 63 1019.0
20260830200853 83 119 0.0 2.0 0.00 0.00 0.00 62 1019.0
20260830195909 83 111 0.0 1.0 0.00 0.00 0.00 63 1018.9
20260830193711 82 111 0.0 0.0 0.00 0.00 0.00 62 1019.2
20260830191546 83 102 0.0 4.0 0.00 0.00 0.00 60 1019.5
20260830190549 83 98 0.0 4.0 0.00 0.00 0.00 62 1019.6
20260830185608 83 120 1.0 4.0 0.00 0.00 0.00 64 1019.7
20260830184618 82 110 0.0 3.0 0.00 0.00 0.00 65 1019.9
20260830183608 82 100 0.0 0.0 0.00 0.00 0.00 63 1019.9
20260830182611 82 117 0.0 3.0 0.00 0.00 0.00 66 1020.1
20260830181556 82 115 0.0 3.0 0.00 0.00 0.00 67 1020.2
20260830180552 82 120 1.0 3.0 0.00 0.00 0.00 65 1020.3
20260830175550 82 102 1.0 3.0 0.00 0.00 0.00 65 1020.3
20260830174608 81 67 0.0 3.0 0.00 0.00 0.00 69 1020.6
20260830173539 81 98 0.0 2.0 0.00 0.00 0.00 67 1020.7
20260830172521 81 110 0.0 3.0 0.00 0.00 0.00 70 1020.8
20260830171502 81 44 1.0 4.0 0.00 0.00 0.00 70 1020.9
20260830165402 81 94 0.0 5.0 0.00 0.00 0.00 71 1021.0
20260830164357 80 101 2.0 4.0 0.00 0.00 0.00 72 1021.1
20260830163357 80 102 1.0 4.0 0.00 0.00 0.00 74 1021.1
20260830162408 80 103 0.0 2.0 0.00 0.00 0.00 73 1021.0
20260830161335 81 95 0.0 3.0 0.00 0.00 0.00 71 1021.0
20260830160321 80 123 0.0 3.0 0.00 0.00 0.00 73 1021.0
20260830155343 80 51 0.0 2.0 0.00 0.00 0.00 73 1021.1
20260830154349 79 98 0.0 2.0 0.00 0.00 0.00 74 1021.2
20260830153405 77 108 0.0 3.0 0.00 0.00 0.00 75 1021.2
20260830152337 77 119 0.0 3.0 0.00 0.00 0.00 75 1021.2
20260830151312 77 82 0.0 3.0 0.00 0.00 0.00 75 1021.0
20260830150302 77 113 0.0 4.0 0.00 0.00 0.00 75 1021.0
20260830145320 77 99 1.0 5.0 0.00 0.00 0.00 75 1021.0
20260830144343 77 51 2.0 5.0 0.00 0.00 0.00 74 1021.0
20260830143327 75 101 0.0 2.0 0.00 0.00 0.00 74 1021.0
20260830142328 75 49 1.0 4.0 0.00 0.00 0.00 74 1020.9
20260830141305 74 39 0.0 3.0 0.00 0.00 0.00 74 1020.8
20260830135136 73 49 0.0 0.0 0.00 0.00 0.00 73 1020.8
20260830134159 73 60 0.0 0.0 0.00 0.00 0.00 73 1020.8
20260830133200 72 41 0.0 0.0 0.00 0.00 0.00 71 1020.7
20260830132150 71 56 0.0 0.0 0.00 0.00 0.00 69 1020.7
20260830131141 71 54 0.0 0.0 0.00 0.00 0.00 65 1020.7
20260830130131 70 51 0.0 0.0 0.00 0.00 0.00 62 1020.8
20260830125124 69 57 0.0 0.0 0.00 0.00 0.00 58 1020.8
20260830124133 69 60 0.0 0.0 0.00 0.00 0.00 53 1020.9
20260830123113 68 323 0.0 0.0 0.00 0.00 0.00 48 1020.8
20260830122136 68 323 0.0 0.0 0.00 0.00 0.00 46 1020.7
20260830120011 67 326 0.0 0.0 0.00 0.00 0.00 46 1020.6
20260830114942 67 326 0.0 0.0 0.00 0.00 0.00 46 1020.7
20260830113955 67 326 0.0 0.0 0.00 0.00 0.00 46 1020.7
20260830112950 67 326 0.0 0.0 0.00 0.00 0.00 45 1020.8
20260830111951 67 326 0.0 0.0 0.00 0.00 0.00 46 1020.7
20260830110949 66 304 0.0 0.0 0.00 0.00 0.00 47 1020.7
20260830105943 66 304 0.0 0.0 0.00 0.00 0.00 46 1020.6
20260830104946 67 304 0.0 0.0 0.00 0.00 0.00 46 1020.5
20260830103935 67 304 0.0 0.0 0.00 0.00 0.00 44 1020.4
20260830102949 67 304 0.0 0.0 0.00 0.00 0.00 41 1020.4
20260830101928 66 304 0.0 0.0 0.00 0.00 0.00 35 1020.4
20260830095815 66 304 0.0 0.0 0.00 0.00 0.00 32 1020.4
20260830094825 65 304 0.0 0.0 0.00 0.00 0.00 36 1020.5
20260830093805 65 304 0.0 0.0 0.00 0.00 0.00 38 1020.5
20260830092807 65 304 0.0 0.0 0.00 0.00 0.00 33 1020.5
20260830091749 65 304 0.0 0.0 0.00 0.00 0.00 31 1020.6
20260830090753 65 89 0.0 0.0 0.00 0.00 0.00 34 1020.6
20260830083459 65 89 0.0 0.0 0.00 0.00 0.00 47 1020.5
20260830082516 65 89 0.0 0.0 0.00 0.00 0.00 52 1020.5
20260830081514 65 89 0.0 0.0 0.00 0.00 0.00 53 1020.5
20260830080537 65 89 0.0 0.0 0.00 0.00 0.00 52 1020.5
20260830075528 65 89 0.0 0.0 0.00 0.00 0.00 50 1020.6
20260830074505 65 89 0.0 0.0 0.00 0.00 0.00 56 1020.6
20260830073503 66 89 0.0 0.0 0.00 0.00 0.00 53 1020.6
20260830072444 66 89 0.0 0.0 0.00 0.00 0.00 49 1020.7
20260830071503 66 89 0.0 0.0 0.00 0.00 0.00 47 1020.7
20260830070510 65 89 0.0 0.0 0.00 0.00 0.00 44 1020.7
20260830065444 65 89 0.0 0.0 0.00 0.00 0.00 40 1020.7
20260830064505 65 89 0.0 0.0 0.00 0.00 0.00 39 1020.7
20260830063510 65 89 0.0 0.0 0.00 0.00 0.00 40 1020.7
20260830062505 64 89 0.0 0.0 0.00 0.00 0.00 44 1020.7
20260830061519 65 89 0.0 0.0 0.00 0.00 0.00 45 1020.7
20260830060533 65 89 0.0 0.0 0.00 0.00 0.00 46 1020.8
20260830055532 65 89 0.0 0.0 0.00 0.00 0.00 46 1020.9
20260830054501 64 89 0.0 0.0 0.00 0.00 0.00 49 1020.9
20260830053445 64 89 0.0 0.0 0.00 0.00 0.00 52 1020.8
20260830052427 64 89 0.0 0.0 0.00 0.00 0.00 56 1020.8
20260830051436 65 89 0.0 0.0 0.00 0.00 0.00 61 1020.7
20260830050452 65 89 0.0 0.0 0.00 0.00 0.00 62 1020.7
20260830044407 65 89 0.0 0.0 0.00 0.00 0.00 65 1020.7
20260830043356 66 89 0.0 0.0 0.00 0.00 0.00 68 1020.7
20260830042348 66 89 0.0 0.0 0.00 0.00 0.00 70 1020.8
20260830040212 67 89 0.0 0.0 0.00 0.00 0.00 72 1020.8
20260830035206 67 89 0.0 0.0 0.00 0.00 0.00 73 1020.9
20260830034148 67 89 0.0 0.0 0.00 0.00 0.00 72 1020.8
20260830033147 67 89 0.0 0.0 0.00 0.00 0.00 72 1020.8
20260830030956 66 89 0.0 0.0 0.00 0.00 0.00 69 1020.7
20260830024750 66 89 0.0 0.0 0.00 0.00 0.00 69 1020.7
20260830023813 66 89 0.0 0.0 0.00 0.00 0.00 71 1020.8
20260830021636 67 89 0.0 0.0 0.00 0.00 0.00 74 1020.7
20260830020634 68 89 0.0 0.0 0.00 0.00 0.00 74 1020.6
20260830015647 68 89 0.0 0.0 0.00 0.00 0.00 76 1020.6
20260830014708 68 89 0.0 0.0 0.00 0.00 0.00 76 1020.6
20260830012617 68 89 0.0 0.0 0.00 0.00 0.00 75 1020.5
20260830011639 68 89 0.0 0.0 0.00 0.00 0.00 75 1020.6
20260830010704 69 89 0.0 0.0 0.00 0.00 0.00 74 1020.4
20260830005631 69 89 0.0 0.0 0.00 0.00 0.00 75 1020.3
20260830004559 70 89 0.0 0.0 0.00 0.00 0.00 75 1020.2
20260830003531 70 89 0.0 0.0 0.00 0.00 0.00 74 1020.3
20260830002459 71 89 0.0 0.0 0.00 0.00 0.00 75 1020.3
20260830001437 72 89 0.0 0.0 0.00 0.00 0.00 70 1020.3